Regional Weather Roundup
Issued by NWS Charleston, SC

Current Version | Previous Version | Graphics & Text | Print | Product List | Glossary On
Versions: 1 2 3 4 5 6 7 8 9 10 11 12 13 14 15 16 17 18 19 20 21 22 23 24 25 26 27 28 29 30 31 32 33 34 35 36 37 38 39 40 41 42 43 44 45 46 47 48 49 50
000
ASUS42 KCHS 302011
RWRCHS

REGIONAL WEATHER ROUNDUP
NATIONAL WEATHER SERVICE CHARLESTON SC
400 PM EDT MON MAR 30 2015

NOTE: "FAIR" INDICATES FEW OR NO CLOUDS BELOW 12,000 FEET WITH NO
SIGNIFICANT WEATHER AND/OR OBSTRUCTIONS TO VISIBILITY.

NOT ALL STATIONS ARE QUALITY CONTROLLED BY THE NATIONAL
WEATHER SERVICE. USE DATA WITH CAUTION...ESPECIALLY
DEWPOINT OBSERVATIONS.

SCZ027-030-031-034>040-042>050-302100-
...SOUTHEAST SOUTH CAROLINA...

CITY           SKY/WX    TMP DP  RH WIND       PRES   REMARKS
N CHARLESTON   PTSUNNY   68  50  52 W18G25    30.06F
WATERFRONT PRK   N/A     66 N/A N/A SW13G18     N/A
MOUNT PLEASANT FAIR      68  52  56 W15G22    30.05F
PINOPOLIS        N/A     64  52  63 W15       29.99F
MONCKS CORNER  MOCLDY    68  50  52 W8G17     30.05F
SUMMERVILLE    MOCLDY    68  52  56 SW12G20   30.07F
BEAUFORT MCAS  CLOUDY    68  50  52 W21G30    30.09F
BEAUFORT ARPT  CLOUDY    68  52  56 W15G22    30.09F
HILTON HEAD IS MOSUNNY   68  52  56 W13G22    30.11F
WALTERBORO     CLOUDY    64  50  59 W12G22    30.08F
ALLENDALE      CLOUDY    66  54  63 W9        30.07F

...SOUTHERN MIDLANDS AND PEE DEE...

CITY           SKY/WX    TMP DP  RH WIND       PRES   REMARKS
GEORGETOWN     NOT AVBL
KINGSTREE      NOT AVBL
ORANGEBURG     CLOUDY    66  50  56 W17G23    30.05F
BARNWELL       MOCLDY    66  55  68 W8        30.07F
AIKEN          MOCLDY    68  48  49 W13G18    30.08F
MANNING        HVY RAIN  64  43  45 W8        30.05F
COLUMBIA       FAIR      70  48  45 W15G21    30.03F
SUMTER         MOSUNNY   68  51  53 W10       30.00F
FLORENCE       FAIR      64  48  56 W13G21    30.01F
MYRTLE BEACH   MOSUNNY   66  46  48 W14       30.04F
N MYRTLE BEACH FAIR      66  47  50 W10G18    30.01F

$$

GAZ063-065-086>088-099>101-113>116-118-119-134>141-150-302100-
...SOUTHEAST GEORGIA...

CITY           SKY/WX    TMP DP  RH WIND       PRES   REMARKS
SAVANNAH ARPT  PTSUNNY   71  51  49 W17G23    30.11F
HUNTER AAF     FAIR      70  55  58 W17G24    30.08F
FORT STEWART   CLOUDY    67  54  61 W10       30.10F
STATESBORO     CLOUDY    66  54  66 W13G18    30.11F
SYLVANIA       CLOUDY    67  56  67 W10G20    30.10F
CLAXTON        CLOUDY    66  55  68 W10G20    30.12F

...CSRA...CENTRAL AND FAR SOUTHEAST GEORGIA...

CITY           SKY/WX    TMP DP  RH WIND       PRES   REMARKS
THOMSON        FAIR      72  53  52 SW9G16    30.10F
AUGUSTA-BUSH   PTSUNNY   70  53  54 W18       30.05F
AUGUSTA-DANIEL FAIR      70  53  54 VRB5      30.06F
SWAINSBORO     CLOUDY    66  48  52 W9        30.12F
VIDALIA        CLOUDY    66  57  72 W9G16     30.12F
EASTMAN        CLOUDY    68  61  77 W9G18     30.15F
HAZLEHURST     CLOUDY    70  59  68 W9        30.12F
ALMA           PTSUNNY   71  54  54 W7        30.13F
WAYCROSS       CLOUDY    74  58  55 W8        30.14F
JESUP          CLOUDY    72  55  56 W7        30.13F
BAXLEY         CLOUDY    68  55  64 W10G17    30.13F
BRUNSWICK      PTSUNNY   70  52  52 SW10      30.14F
SAINT SIMONS   FAIR      69  51  52 SW10      30.13F

$$

SCZ027-028-034-036>038-045-046-048>050-GAZ119-141-302100-
...LAKE AND SUPPLEMENTAL COASTAL OBSERVATIONS...

STATION/POSITION TIME  TEMP    WIND        PRES    WAVE   SWELL
                       AIR SEA DIR/SP/G            HT/PER HT/PER/DIR
                 (UTC) (F)     (DEG/KT/KT) (MB)    (FT/S) (FT/S/D)
UPR LAKE MARION  NOT AVBL
WINYAH BAY       NOT AVBL
LAKE MURRAY      1900   62     270/ 13/ 17 1017.3F
ACE BASIN NERRS  NOT AVBL
FORT PULASKI     1900   65 59  230/ 12/ 18 1020.8F
SAPELO ISLAND    NOT AVBL

$$

ANZ835-935-AMZ111-154-330-350-352-354-370-450-454-472-302100-
...C-MAN AND BUOY OBSERVATIONS...

STATION/POSITION TIME  TEMP    WIND        PRES    WAVE   SWELL
                       AIR SEA DIR/SP/G            HT/PER HT/PER/DIR
                 (UTC) (F)     (DEG/KT/KT) (MB)    (FT/S) (FT/S/D)
BUOY 41004       1950   64 68  240/ 25/ 31 1017.3F   8/ 7   2/14
BUOY 41008       1950   62 61  210/ 14/ 16 1019.8F   3/ 4   2/110/ 8
FOLLY BEACH CMAN 2000   61     220/ 16/ 19 1018.0F
CAPERS NEARSHORE NOT AVBL
FRIPP NEARSHORE  1900   61     240/ 17/ 21 1019.2F


STATION/POSITION TIME  TEMP    WIND        PRES    WAVE   SWELL
                       AIR SEA DIR/SP/G            HT/PER HT/PER/DIR
                 (UTC) (F)     (DEG/KT/KT) (MB)    (FT/S) (FT/S/D)
5E ST. MARYS GA  1921      61                N/A     2/ 8
FRYING PAN BUOY  1950   63 64  230/ 23/ 27 1016.3F   8/ 6
BUOY 41025       NOT AVBL
CAPE LOOKOUT NC  2000   58     240/ 15/ 21 1015.2F
BUOY 41002       1950   62 68  240/ 19/ 27 1020.7F   6/10   3/ 40/10
BUOY 41010       1920   69 76  220/  6/ 10 1023.6F
ST AUGUSTINE FL  2000   65 63  140/ 16/ 17 1021.4F


$$


USA.gov is the U.S. government's official web portal to all federal, state and local government web resources and services.